Tracking 28790 objects as of 19-Apr-2024
HD Live streaming from Space Station
objects crossing your sky now

STARLINK-1498

Track STARLINK-1498 now!
10-day predictions
STARLINK-1498 is classified as:


NORAD ID: 45782
Int'l Code: 2020-038BE
Perigee: 472.0 km
Apogee: 474.1 km
Inclination: 53.1 °
Period: 93.9 minutes
Semi major axis: 6844 km
RCS: Unknown
Launch date: June 13, 2020
Source: United States (US)
Launch site: AIR FORCE EASTERN TEST RANGE (AFETR)
Your satellite tracking list
Your tracking list is empty




NASA's NSSDC Master Catalog

Two Line Element Set (TLE):
1 45782U 20038BE  24109.86465852  .00027838  00000-0  86068-3 0  9998
2 45782  53.0500 354.8658 0001493 357.7012   2.3982 15.33321513214549
Source of the keplerian elements: AFSPC